This is the latest recevied weather packets stored in our database for station/object AD8AK. If no packets are shown the sender has not sent any weather packets the latest 10 day(s).
| Time | Temp. | Humidity | Pressure | Rain* | Wind** | Luminosity | Snow |
|---|---|---|---|---|---|---|---|
| 1777624268 | 5.56° C | 90% | 1012.9 hPa | 0 mm | - | - | - |
| 1777623968 | 5.56° C | 90% | 1012.8 hPa | 0 mm | - | - | - |
| 1777623664 | 5.56° C | 90% | 1012.8 hPa | 0 mm | - | - | - |
| 1777623362 | 5.56° C | 89% | 1012.6 hPa | 0 mm | - | - | - |
| 1777623058 | 5.56° C | 89% | 1013 hPa | 0 mm | - | - | - |
| 1777622755 | 5.56° C | 89% | 1013 hPa | 1.27 mm | - | - | - |
| 1777622452 | 5.56° C | 89% | 1012.9 hPa | 1.27 mm | - | - | - |
| 1777622148 | 5.56° C | 89% | 1013.1 hPa | 1.78 mm | - | - | - |
| 1777621844 | 5.56° C | 88% | 1013 hPa | 1.78 mm | - | - | - |
| 1777621541 | 6.11° C | 88% | 1013 hPa | 0 mm | - | - | - |
| 1777621237 | 6.11° C | 88% | 1013 hPa | 0 mm | - | - | - |
| 1777620933 | 6.11° C | 87% | 1013.1 hPa | 0 mm | - | - | - |
| 1777620629 | 5.56° C | 87% | 1013 hPa | 0 mm | - | - | - |
| 1777620325 | 6.11° C | 87% | 1013.3 hPa | 1.27 mm | - | - | - |
| 1777620023 | 6.11° C | 87% | 1013.3 hPa | 1.27 mm | - | - | - |
| 1777619720 | 6.11° C | 87% | 1013.6 hPa | 0 mm | - | - | - |
| 1777619420 | 6.11° C | 87% | 1013.7 hPa | 0 mm | - | - | - |
| 1777619120 | 6.11° C | 86% | 1013.6 hPa | 0 mm | - | - | - |
| 1777618815 | 6.11° C | 86% | 1013.7 hPa | 1.78 mm | - | - | - |
| 1777618509 | 6.67° C | 85% | 1013.7 hPa | 1.78 mm | - | - | - |
| 1777618206 | 6.67° C | 85% | 1014 hPa | 0 mm | - | - | - |
| 1777617902 | 6.67° C | 83% | 1014.1 hPa | 1.27 mm | - | - | - |
| 1777617598 | 6.67° C | 83% | 1014 hPa | 0 mm | - | - | - |
| 1777617295 | 6.67° C | 81% | 1013.8 hPa | 1.78 mm | - | - | - |
| 1777616992 | 7.22° C | 80% | 1014.1 hPa | 1.78 mm | - | - | - |
* Rain latest hour (hover to see other rain measurements)
** Current wind speed in m/s (hover to see current wind gust speed)